Regional Weather Roundup
Issued by NWS Pendleton, OR

Home | Current Version | Previous Version | Text Only | Print | Product List | Glossary On
Versions: 1 2 3 4 5 6 7 8 9 10 11 12 13 14 15 16 17 18 19 20 21 22 23 24 25 26 27 28 29 30 31 32 33 34 35 36 37 38 39 40 41 42 43 44 45 46 47 48 49 50
618
ASUS46 KPDT 251225
RWRPDT
PENDLETON REGIONAL WEATHER ROUNDUP
NATIONAL WEATHER SERVICE PENDLETON OREGON
500 AM PDT SUN SEP 25 2016

NOTE: FAIR INDICATES FEW OR NO CLOUDS BELOW 12,000 FEET WITH NO
SIGNIFICANT WEATHER AND/OR OBSTRUCTIONS TO VISIBILITY.

# INDICATES UNOFFICIAL STATION AND DATA

WAZ520-251310-
EAST SLOPES OF WASHINGTON CASCADES

CITY            SKY/WX      TMP DP  RH  WIND    PRES   REMARKS
#CLE ELUM HS    N/A         53  43  69  CALM    30.31R
#CLE ELUM 2NW   N/A         51  42  71  CALM    N/A
#CLE ELUM LAKE  N/A         54  37  52  E1      30.33R
#GLENWOOD       N/A         37  35  92  CALM    30.40R
#MANASTASH CYN  N/A         46  37  71  CALM    30.34R
#NELSON 3SW     N/A         48  42  80  CALM    30.56S
#NILE           N/A         44  40  86  CALM    29.65S
#RONALD 2NW     N/A         52  N/A N/A CALM    30.39S
#TEANAWAY 4NE   N/A         48  41  77  CALM    N/A
#TROUT LAKE 1NE N/A         42  40  93  CALM    30.37S
#TROUT LAKE 1E  N/A         41  39  93  CALM    30.34S
$$

WAZ521-251310-
SIMCOE HIGHLANDS

CITY            SKY/WX      TMP DP  RH  WIND    PRES   REMARKS
#CENTERVILLE 1SWN/A         39  31  73  CALM    30.34S
#GOLDENDALE 1NE N/A         45  23  41  N7      N/A
#GOLDENDALE 4W  N/A         42  40  93  CALM    30.40R
#GOODNOE HILLS  N/A         53  42  66  W2      N/A
#LYLE 6NE       N/A         49  41  74  N3      30.33R
$$

WAZ026-251310-
KITTITAS VALLEY

CITY            SKY/WX      TMP DP  RH  WIND    PRES   REMARKS
ELLENSBURG AP   PTCLDY      55  41  59  W8      30.36R
6HR MIN TEMP:   55; 6HR MAX TEMP:   61;

#ELLENSBURG CWU N/A         56  43  62  W1      30.27S
#ELLENSBURG 3NE N/A         55  41  59  CALM    30.35R
#ELLENSBURG     N/A         56  48  74  CALM    N/A
#ELLENSBURG 1E  N/A         51  N/A N/A CALM    N/A
#KITTITAS 4N    N/A         50  38  63  CALM    30.34S
#KITTITAS 3S    N/A         47  43  86  CALM    30.33R
#THORP 6N       N/A         53  40  61  NW6     30.36R
$$

WAZ027-251310-
YAKIMA VALLEY

CITY            SKY/WX      TMP DP  RH  WIND    PRES   REMARKS
SUNNYSIDE AP    PTCLDY      44  41  89  CALM    30.36S
YAKIMA AIRPORT  CLEAR       46  37  71  W3      30.38S
6HR MIN TEMP:   46; 6HR MAX TEMP:   54;

YAKIMA-VAGABOND MOCLEAR     50  35  56  N1      30.35S
6HR MIN TEMP:   47; 6HR MAX TEMP:   55;

#GRANDVIEW      N/A         46  43  89  CALM    30.37S
#MABTON         N/A         48  41  77  CALM    30.35F
#NACHES 2SW     N/A         50  40  68  NW1     30.37S
#TERRACE HTS    N/A         48  41  77  CALM    30.32S
#TOPPENISH      N/A         48  43  83  CALM    30.27S
#WEST VALLEY    N/A         47  40  76  CALM    30.35R
#WHITE SWAN 5E  N/A         45  40  82  CALM    30.37R
#WILEY CITY 3W  N/A         50  33  52  CALM    30.34S
$$

WAZ028-251310-
LOWER COLUMBIA BASIN...WASHINGTON

CITY            SKY/WX      TMP DP  RH  WIND    PRES   REMARKS
PASCO           PTCLDY      47  41  79  N3      30.37R
6HR MIN TEMP:   47; 6HR MAX TEMP:   54;

PROSSER AWOS    N/A         46  41  83  CALM    30.39F
RICHLAND AWOS   CLEAR       48  45  89  CALM    30.37R
#BENTON CITY    N/A         51  43  74  CALM    30.26S
#CONNELL 5N     N/A         53  39  59  E1      30.36F
#CONNELL 5NW    N/A         52  27  38  CALM    30.32F
#ELTOPIA 6NW    N/A         53  43  69  CALM    29.32S
#KAHLOTUS       N/A         48  37  65  S7      30.35F
#KENNEWICK 3S   N/A         55  41  59  CALM    30.36R
#PATERSON       N/A         48  42  80  CALM    30.35S
#SAGEMOOR 2W    N/A         52  42  69  CALM    30.20S
#TOUCHET 2S     N/A         40  37  89  CALM    30.35F
#WEST PASCO     N/A         50  41  71  E1      30.39R
$$

WAZ029-251310-
FOOTHILLS OF THE BLUES...WASHINGTON

CITY            SKY/WX      TMP DP  RH  WIND    PRES   REMARKS
WALLA WALLA AP  CLEAR       53  34  48  E5      30.37S
6HR MIN TEMP:   51; 6HR MAX TEMP:   56;

#CLYDE 6NW      N/A         47  37  68  CALM    30.36F
#DAYTON SCHOOL  N/A         49  31  50  N1      30.38R
#LOWDEN 2SE     N/A         42  39  89  CALM    30.34S
#PLEASANT VIEW 1N/A         55  37  51  SW1     30.39S
#PRESCOTT       N/A         44  39  82  CALM    30.36S
#WHITMAN COLLEGEN/A         56  38  51  E2      30.40S
#WAITSBURG 5S   N/A         53  33  46  CALM    30.45S
#WHITMAN MISSIONN/A         46  42  86  CALM    30.39R
$$

WAZ030-251310-
BLUE MOUNTAINS...WASHINGTON

CITY            SKY/WX      TMP DP  RH  WIND    PRES   REMARKS
#DIXIE 5SE      N/A         57  28  33  S3      30.34R
$$

ORZ009-041-WAZ024-251310-
COLUMBIA RIVER GORGE

CITY            SKY/WX      TMP DP  RH  WIND    PRES   REMARKS
HOOD RIVER AP   CLEAR       46  43  89  CALM    30.39S
THE DALLES AP   CLEAR       53  43  69  CALM    30.38R
6HR MIN TEMP:   50; 6HR MAX TEMP:   61;

#ARLINGTON AIRPON/A         53  39  59  CALM    30.36F
#CELILO DOT     N/A         56  43  62  S1      N/A
#MARYHILL 2W    N/A         N/A N/A N/A CALM    N/A
#MOSIER 1S      N/A         50  38  63  CALM    30.35S
#MURDOCK        N/A         56  47  72  W6      30.34R
#RUFUS DOT      N/A         54  42  64  S6      N/A
#SMITHVILLE     N/A         52  44  74  CALM    30.32R

$$

ORZ510-251310-
NORTH CENTRAL OREGON

CITY            SKY/WX      TMP DP  RH  WIND    PRES   REMARKS
#ANTELOPE       N/A         42  28  57  CALM    30.28R
#COW CYN RST AREN/A         54  N/A N/A S1      N/A
#DUFUR 9E       N/A         59  35  40  SW5     30.39F
#GRASS VALLEY 1SN/A         49  34  56  S2      30.31S
#KENT DOT       N/A         51  22  32  N6      N/A
#SHANIKO 5WSW   N/A         53  21  28  N8      N/A
#TYGH VALLEY 2NEN/A         46  35  65  CALM    30.38R
#WAPANITIA AIRPON/A         47  38  71  CALM    30.39S
#WASCO DOT      N/A         45  38  76  S2      N/A
#WASCO AIRPORT  N/A         50  36  58  SE2     N/A
#WASCO 5NE      N/A         46  37  71  CALM    30.35S
$$

ORZ511-251310-
CENTRAL OREGON

CITY            SKY/WX      TMP DP  RH  WIND    PRES   REMARKS
BEND AIRPORT    CLEAR       46  32  58  S5      30.43S
MADRAS AIRPORT  CLEAR       50  32  50  S5      30.43S
PRINEVILLE AP   CLEAR       39  21  48  CALM    30.44S
REDMOND AIRPORT CLEAR       42  19  39  SE3     30.43S
6HR MIN TEMP:   40; 6HR MAX TEMP:   47;

#ASHWOOD SCHOOL N/A         41  27  57  CALM    30.36S
#BEND 1SW       N/A         43  33  67  W1      N/A
#BEND-AWBREY    N/A         53  34  48  SE2     30.36F
#CULVER         N/A         43  33  67  CALM    30.32S
#CULVER 8W      N/A         48  29  47  S1      30.35F
#LAKE BILLY CHINN/A         46  N/A N/A CALM    30.44R
#MADRAS 4S      N/A         44   4  19  CALM    30.46R
#POWELL BUTTE 3EN/A         41  23  48  S3      N/A
#POWELL BUTTE   N/A         46  27  47  SE1     30.35S
#PRINEVILLE 3N  N/A         38  33  82  SE3     30.42R

$$


ORZ509-251310-
EAST SLOPES OF OREGON CASCADES

CITY            SKY/WX      TMP DP  RH  WIND    PRES   REMARKS
#BLUE BOX PASS  N/A         52  N/A N/A S1      N/A
#CAMP SHERMAN   N/A         34  25  69  CALM    30.46R
#LA PINE DOT    N/A         34  19  54  CALM    N/A
#LA PINE 4NW    N/A         29  21  72  CALM    30.49R
#LAVA BUTTE DOT N/A         38  22  52  CALM    N/A
#SISTERS AIRPOR N/A         35  30  82  CALM    30.17S
#SISTERS ODOT   N/A         37  N/A N/A CALM    N/A
#SISTERS 3N     N/A         35  20  54  CALM    30.38S
#SUNRIVER       N/A         35  28  75  CALM    30.46R
#SUTTLE LK DOT  N/A         38  33  82  SE3     N/A
#TUMALO 3W      N/A         55  30  38  S1      30.24S
#WANOGA BUTTE D N/A         50  43  77  CALM    N/A

$$

ORZ044-251310-
LOWER COLUMBIA BASIN...OREGON

CITY            SKY/WX      TMP DP  RH  WIND    PRES   REMARKS
HERMISTON       CLEAR       45  38  76  SE5     30.37S
6HR MIN TEMP:   44; 6HR MAX TEMP:   52;

#BOARDMAN SCHOOLN/A         43  38  82  CALM    30.37S
#BOARDMAN 8SW   N/A         49  37  63  CALM    30.35F
#I-84 EX 198 DOTN/A         54  37  52  NE8     N/A
#UMATILLA       N/A         46  38  73  CALM    30.30S
$$

ORZ507-251310-
NORTHERN FOOTHILLS OF THE BLUES

CITY            SKY/WX      TMP DP  RH  WIND    PRES   REMARKS
PENDLETON AIRPT CLEAR       47  37  68  E9      30.38S
6HR MIN TEMP:   47; 6HR MAX TEMP:   51;

#ADAMS 3WNW     N/A         42  37  82  CALM    30.38R
#ATHENA         N/A         50  37  61  CALM    30.40S
#CAYUSE         N/A         54  38  55  E13     30.36R
#HELIX SCHOOL   N/A         41  37  86  CALM    30.38S
#HELIX 3N       N/A         51  38  61  N7      30.33F
#HOLDMAN 5SE    N/A         49  38  66  SE2     30.35S
#HOLDMAN 6E     N/A         49  37  63  W1      30.17F
#M-F GROVE ELEM N/A         56  33  42  CALM    30.34S
#M-FREEWATER 5SEN/A         55  37  51  E7      30.36S
#PENDLETON DNTN N/A         43  34  70  CALM    30.39S
#PDT AQUATIC CTRN/A         44  33  65  CALM    30.37S
#PDT SUNRIDGE   N/A         39  36  89  CALM    30.40S
#PENDLETON 7NW  N/A         46  40  79  CALM    30.62S
#PILOT ROCK 1S  N/A         52  30  43  SE5     30.38R
#PILOT ROCK     N/A         48  35  60  SW1     30.39R
#TUTUILLA       N/A         40  37  89  CALM    30.39R
#UMAPINE 2E     N/A         45  39  79  CALM    30.34S
#WESTON SCHOOL  N/A         56  31  38  NW2     30.25R

$$

ORZ508-251310-
SOUTHERN FOOTHILLS OF THE BLUES

CITY            SKY/WX      TMP DP  RH  WIND    PRES   REMARKS
LEXINGTON       CLEAR       54  28  36  E10     30.41S
#AJAX           N/A         55  24  30  E6      28.10S
#CONDON SCHOOL  N/A         51  32  48  CALM    30.33S
#CONDON 5W      N/A         56  26  31  SW6     30.38S
#FOSSIL SCHOOL  N/A         45  32  60  CALM    30.33S
#HEPPNER EOC    N/A         50  31  48  E8      30.30F
#HEPPNER 4NE    N/A         55  31  40  S1      30.36F
#LEXINGTON 2SE  N/A         49  33  54  SE6     30.35F
#RUGGS 5NE      N/A         50  30  46  NW1     30.55S
#RUGGS 2SW      N/A         55  32  41  SW9     30.39R

$$

ORZ502-503-251310-
BLUE MOUNTAINS

CITY            SKY/WX      TMP DP  RH  WIND    PRES   REMARKS
MEACHAM         CLEAR       31  27  85  CALM    30.44R
6HR MIN TEMP:   31; 6HR MAX TEMP:   37;

#BATTLE MTN DOT N/A         40  31  70  S5      N/A
#CUTSFORTH PARK N/A         36  33  89  CALM    30.22S
#GREENHORN 9SW  N/A         29  23  78  CALM    26.63R
#HARDMAN 10S    N/A         46  32  58  CALM    30.52S
#HEPPNER 15SE   N/A         42  25  51  CALM    25.92F
#LADD CYN SMT   N/A         36  32  85  E3      N/A
#LADD CREEK ODOTN/A         41  33  73  S2      N/A
#LONG CREEK HS  N/A         43  38  82  CALM    30.45S
#N POWDER DOT   N/A         33  30  89  SW3     N/A
#PIKES PEAK     N/A         56  27  33  S12     27.99S
#TOLLGATE       N/A         41  32  70  CALM    30.26R
#TROY SCHOOL    N/A         49  39  68  CALM    30.27R
#UKIAH          N/A         31  29  92  CALM    30.39R
#WESTON 4E      N/A         53  32  45  SE5     30.36S
$$

ORZ505-251310-
JOHN DAY BASIN

CITY            SKY/WX      TMP DP  RH  WIND    PRES   REMARKS
JOHN DAY        PTCLDY      45  31  58  SE9     30.47R
#DAYVILLE SCHOOLN/A         43  34  70  CALM    30.40R
#MITCHELL       N/A         46  34  63  E6      30.55S
#MITCHELL 8NW   N/A         55  29  37  CALM    30.56S
#MONUMENT HS    N/A         41  35  79  CALM    30.42S
#MT. VERNON 5SE N/A         45  30  55  CALM    30.42R
#SPRAY SCHOOL   N/A         39  N/A N/A CALM    N/A
$$

ORZ506-251310-
OCHOCO AND JOHN DAY HIGHLANDS

CITY            SKY/WX      TMP DP  RH  WIND    PRES   REMARKS
#BUCK CREEK DOT N/A         51  29  42  CALM    N/A
#HORSE RIDGE DO N/A         33  16  49  CALM    N/A
#KEYES SMT DOT  N/A         47  26  44  NW2     N/A
#PAULINA SCHOOL N/A         36  30  79  CALM    N/A
#PINE MTN OBS   N/A         54  19  25  CALM    N/A
#PRAIRIE CITY   N/A         34  29  82  CALM    30.59R
#SENECA         N/A         30  N/A N/A CALM    N/A
#SENECA 9NW     N/A         29  25  85  CALM    30.46R
$$

ORZ049-251310-
GRANDE RONDE VALLEY

CITY            SKY/WX      TMP DP  RH  WIND    PRES   REMARKS
LA GRANDE       CLEAR       36  25  64  CALM    30.45R
#COVE SCHOOL    N/A         38  32  79  CALM    30.42S
#COVE 6NW       N/A         34  30  85  CALM    30.33R
#ELGIN 3N       N/A         34  29  82  CALM    30.40R
#ELGIN 1E       N/A         35  29  78  CALM    N/A
#IMBLER SCHOOL  N/A         37  32  82  CALM    30.37S
#ISLAND CITY 4N N/A         50  49  96  CALM    30.37S
#LADD CYN DOT   N/A         44  35  70  S3      N/A
#LA GRANDE ELEM N/A         42  35  76  CALM    30.43R
#UNION 1S       N/A         37  31  79  CALM    30.43S
$$

ORZ050-251310-
WALLOWA COUNTY

CITY            SKY/WX      TMP DP  RH  WIND    PRES   REMARKS
JOSEPH AIRPORT  CLEAR       39  32  76  S3      30.46F
#IMNAHA SCHOOL  N/A         46  37  71  SW2     30.42S
#IMNAHA 10S     N/A         45  34  65  SW5     30.40F
#JOSEPH 3N      N/A         36  29  75  CALM    30.42F
#JOSEPH 3W      N/A         42  31  65  SW5     30.25S
#LOSTINE        N/A         36  32  85  CALM    30.23F
#LOSTINE 3SE    N/A         38  31  76  S3      30.40S
#MT HOWARD 8000 N/A         45  30  55  W7      30.54S
#PROMISE 1S     N/A         40  35  82  CALM    30.50R
#WALLOWA SCHOOL N/A         35  32  89  CALM    30.39F



$$



USA.gov is the U.S. government's official web portal to all federal, state and local government web resources and services.